Terminal Aerodrome Forecast
Issued by NWS

Home | Current Version | Previous Version | Text Only | Print | Product List | Glossary On
Versions: 1 2 3 4 5 6 7 8 9 10 11 12 13 14 15 16 17 18 19 20 21 22 23 24 25 26 27 28 29 30 31 32 33 34 35 36 37 38 39 40 41 42 43 44 45 46 47 48 49 50
000
FTAK31 PANC 230539
TAFASN
TAF
PASN 230539Z 2306/2406 30008KT P6SM OVC007
      TEMPO 2306/2310 3SM BR OVC004
     FM231000 29007KT 3SM BR OVC004
     FM231200 28007KT 1 1/2SM BR OVC004
     FM232000 26014KT P6SM VCSH BKN006
     FM240200 27016KT P6SM BKN010=

USA.gov is the U.S. government's official web portal to all federal, state and local government web resources and services.